COSMOS 1275 DEB, 12674

Orbit data source: Space-Track

COSMOS 1275 DEB, 12674 is space debris in LEO originally from a launch on Thu, 04 Jun 1981 UTC launched from the Plesetsk Missile And Space Complex (PKMTR). Debris objects in space refer to the collection of defunct objects orbiting the Earth. Examples of debris include non-operational satellites, rocket bodies, and fragments generated from explosions, collisions, or faulty payload assembly.

Loading next visibility...
Identifier
12674, 1981-053AE
Orbit
LEO
Country
Flag of CISCIS
Related business
Manufacturer
Unknown
Mission
Spacecraft
Bus & Motor
Unknown
Mass
Unknown
Launch date (UTC)
1981-06-04 (45 years ago)
Launch vehicle
Unknown
Launch site
Plesetsk Missile And Space Complex (PKMTR)
Object type
Payload
Rocket body
Debris
Shape & HBR
Unknown shape, 0.2 m
Radar Cross Section
Medium (>0.1 m² and <1 m²)

Expand to show TLE details & history
Last TLE update: 5 hours ago

TLE from 5 hours ago
0 COSMOS 1275 DEB
1 12674U 81053AE  26124.22868154  .00000593  00000-0  58197-3 0  9998
2 12674  82.9380  38.9301 0101203 104.6618  48.2648 13.75087601233782
Epoch: 2026-05-04T05:29Z
TLE epoch observation values (Epoch: 2026-05-04T05:29:18.085Z)
Latitude
26.02011°
Longitude
-88.96509°
Altitude
935.35 km
Speed
7.411 km/s
True Right ascension
14h 21m 55s
True Declination
25° 53' 17"
Sunlit
Object was in full shadow at epoch
Visualization orbit readout
Latitude
Unknown
Longitude
Unknown
Altitude
Unknown
Speed
Unknown
Apparent Right ascension
Unknown
Apparent Declination
Unknown
Sunlit
N/A
Visualization observer readout
Local Sidereal Time
18:16:54
Azimuth
Unknown
Elevation
Unknown
Doppler factor
Unknown
Orbital elements
Apogee altitude
1,052.962 km
Perigee altitude
904.059 km
Semi-major axis
7,356.648 km
Eccentricity
0.01012
Inclination
82.938°
RAAN
38.9301°
Arg. of periapsis
104.6618°
True anomaly
49.13752°
Mean anomaly
48.2648°
Eccentric anomaly
48.70042°
Mean motion
3.43972 °/min
Orbital period
104.66 mins
BSTAR
0.00058197
Loading maneuver chart data...
Computing Atmospheric mass density...
Loading historical data...
Loading historical data...
Loading historical data...
Loading historical data...
Loading historical data...
Loading historical data...
Loading historical data...

Documentation

Showing up to 5 results
|